STARLINK-32505, 63085

Orbit data source: Space-Track

STARLINK-32505, 63085 is a payload satellite owned by SpaceX/Seattle (US) in LEO that was launched on Sun, 23 Feb 2025 UTC via an FALCON 9 launch vehicle from the Air Force Western Test Range (AFWTR). Payload-class satellites include a variety of spacecraft equipped with specific instruments for various scientific and technological missions. These include communications satellites like Starlink; space stations such as the ISS; scientific satellites like the Hubble; Earth observation satellites from companies like Planet Labs, Umbra, and HawkEye 360; GPS; miniature CubeSats for education and research; and military/defense satellites.

Loading next visibility...
Identifier
63085, 2025-037J
Orbit
LEO
Country
Flag of USUS
Related business
Manufacturer
SpaceX/Seattle
Mission
Operational Commercial Communications
Bus & Motor
STARLINK V2M, Unknown motor
Mass
730 kg wet, ~700 kg dry
Launch date (UTC)
2025-02-23 (1 year ago)
Launch vehicle
FALCON 9
Launch site
Air Force Western Test Range (AFWTR)
Object type
Payload
Rocket body
Debris
Shape & HBR
Box + 2 Pan, 17.7 m
Radar Cross Section
33.884 m², Large (>1 m²)

Expand to show TLE details & history
Last TLE update: 15 hours ago

TLE from 15 hours ago
0 STARLINK-32505
1 63085U 25037J   26171.20388278  .00018024  00000-0  15125-2 0  9995
2 63085  70.0007  96.1411 0002685 268.9355  91.1496 14.98381364 73905
Epoch: 2026-06-20T04:53Z
TLE epoch observation values (Epoch: 2026-06-20T04:53:35.472Z)
Latitude
-0.00005°
Longitude
114.32141°
Altitude
574.359 km
Speed
7.574 km/s
True Right ascension
06h 24m 33s
True Declination
0° 00' 00"
Sunlit
Object was in daylight at epoch
Visualization orbit readout
Latitude
Unknown
Longitude
Unknown
Altitude
Unknown
Speed
Unknown
Apparent Right ascension
Unknown
Apparent Declination
Unknown
Sunlit
N/A
Visualization observer readout
Local Sidereal Time
07:15:42
Azimuth
Unknown
Elevation
Unknown
Doppler factor
Unknown
Orbital elements
Apogee altitude
571.711 km
Perigee altitude
567.98 km
Semi-major axis
6,947.982 km
Eccentricity
0.00027
Inclination
70.0007°
RAAN
96.1411°
Arg. of periapsis
268.9355°
True anomaly
91.18036°
Mean anomaly
91.1496°
Eccentric anomaly
91.16498°
Mean motion
3.74762 °/min
Orbital period
96.06 mins
BSTAR
0.0015125
Loading maneuver chart data...
Computing Atmospheric mass density...
Loading historical data...
Loading historical data...
Loading historical data...
Loading historical data...
Loading historical data...
Loading historical data...
Loading historical data...

Documentation

Showing up to 5 results
|